Location: Holmbach
(49.5093°N, 8.8411°E)
Time: 04:33:56
(UTC+00:00)

Meteor 1-24 Rocket - Pass Details

Date: 17 June 2025
Orbit: 788 x 926 km, 81.2° (Epoch: 12 July)

Event Time Altitude Azimuth Distance (km) Brightness Sun altitude
Exits shadow 22:43:36 26° 166° (SSE) 1,737 4.7 -16.5°
Maximum altitude 22:46:58 59° 96° (E) 1,045 4.1 -16.6°
Drops below altitude 10° 22:52:44 10° 19° (NNE) 2,569 7.2 -16.7°
Sets 22:55:11 0° 15° (NNE) 3,493 8.2 -16.8°
